Location: Bieujac
(44.5398°N, 0.1549°W)
Time: 01:39:20
(UTC+00:00)

Cosmos 2237 - Pass Details

Date: 17 November 2019
Orbit: 845 x 857 km, 70.8° (Epoch: 13 December)

Event Time Altitude Azimuth Distance (km) Brightness Sun altitude
Exits shadow 06:11:35 - 332° (NNW) 3,408 6.9 -8.7°
Reaches altitude 10° 06:13:59 10° 330° (NNW) 2,497 6.2 -8.3°
Maximum altitude 06:19:40 68° 248° (WSW) 917 4.3 -7.3°
Drops below altitude 10° 06:25:19 10° 167° (SSE) 2,473 7.1 -6.4°
Sets 06:27:45 0° 164° (SSE) 3,402 7.9 -6.0°
